VTK225 UIII-UNKL

Flight info

Callsign VTK225
Flight time 1h 27m
Altitude 34000
Route BOGRA5C BOGRA A815 TUTEK A91 SUKOR W176 TISBU A311 LALOM LALOM2S
Aircraft A319/M-SDE3FGHIRWY/LB1

Departure

Time 2026-04-27 23:34
Airport Irkutsk International Airport (UIII)

Arrival

Time 2026-04-28 01:01
Airport Krasnoyarsk International Airport (UNKL)
Time Latitude Longitude Altitude Speed Heading
2026-04-27 23:15 52.27189 104.35538 1651 ft 0 kts 87°
2026-04-27 23:28 52.27189 104.35544 1651 ft 2 kts 89°
2026-04-27 23:29 52.27174 104.35584 1651 ft 6 kts 137°
2026-04-27 23:29 52.27150 104.35645 1651 ft 7 kts 101°
2026-04-27 23:29 52.27153 104.35739 1651 ft 9 kts 84°
2026-04-27 23:29 52.27169 104.35853 1651 ft 11 kts 77°
2026-04-27 23:30 52.27179 104.35990 1651 ft 13 kts 86°
2026-04-27 23:30 52.27183 104.36146 1651 ft 15 kts 87°
2026-04-27 23:30 52.27173 104.36317 1651 ft 16 kts 108°
2026-04-27 23:30 52.27134 104.36494 1651 ft 17 kts 110°
2026-04-27 23:31 52.27090 104.36682 1651 ft 18 kts 110°
2026-04-27 23:31 52.27044 104.36882 1651 ft 19 kts 110°
2026-04-27 23:31 52.27003 104.37067 1651 ft 14 kts 110°
2026-04-27 23:31 52.26989 104.37190 1651 ft 11 kts 70°
2026-04-27 23:32 52.27037 104.37304 1651 ft 13 kts 54°
2026-04-27 23:32 52.27094 104.37433 1651 ft 15 kts 54°
2026-04-27 23:32 52.27151 104.37563 1652 ft 11 kts 54°
2026-04-27 23:32 52.27191 104.37639 1653 ft 6 kts 54°
2026-04-27 23:33 52.27187 104.37690 1653 ft 5 kts 113°
2026-04-27 23:33 52.27075 104.38109 1652 ft 79 kts 113°
2026-04-27 23:33 52.26762 104.39286 1651 ft 143 kts 113°
2026-04-27 23:33 52.26329 104.40909 2085 ft 157 kts 115°
2026-04-27 23:34 52.25894 104.42550 2831 ft 158 kts 117°
2026-04-27 23:34 52.25781 104.44442 3289 ft 189 kts 78°
2026-04-27 23:34 52.26676 104.46237 3592 ft 226 kts 36°
2026-04-27 23:34 52.28165 104.47458 4069 ft 252 kts 23°
2026-04-27 23:35 52.29884 104.48507 4711 ft 273 kts 19°
2026-04-27 23:35 52.31697 104.49540 5688 ft 278 kts 19°
2026-04-27 23:35 52.33523 104.50613 6741 ft 280 kts 19°
2026-04-27 23:35 52.35344 104.51742 7789 ft 280 kts 20°
2026-04-27 23:36 52.37158 104.52914 8849 ft 281 kts 21°
2026-04-27 23:36 52.38976 104.54122 9879 ft 283 kts 21°
2026-04-27 23:36 52.40824 104.55370 10571 ft 297 kts 21°
2026-04-27 23:36 52.42784 104.56702 10976 ft 318 kts 21°
2026-04-27 23:37 52.44855 104.58113 11713 ft 326 kts 21°
2026-04-27 23:37 52.46986 104.59454 12533 ft 330 kts 15°
2026-04-27 23:37 52.49261 104.60083 13361 ft 334 kts
2026-04-27 23:37 52.51586 104.59830 14152 ft 337 kts 348°
2026-04-27 23:38 52.53837 104.58701 14884 ft 341 kts 338°
2026-04-27 23:38 52.56059 104.57288 15622 ft 344 kts 338°
2026-04-27 23:38 52.58313 104.55867 16348 ft 348 kts 338°
2026-04-27 23:38 52.60590 104.54441 17067 ft 352 kts 338°
2026-04-27 23:39 52.62892 104.53001 17788 ft 356 kts 338°
2026-04-27 23:39 52.65194 104.51557 18473 ft 360 kts 338°
2026-04-27 23:39 52.67546 104.50078 19094 ft 364 kts 338°
2026-04-27 23:39 52.69926 104.48578 19717 ft 367 kts 338°
2026-04-27 23:40 52.72323 104.47058 20343 ft 371 kts 337°
2026-04-27 23:40 52.74630 104.45104 20947 ft 374 kts 326°
2026-04-27 23:40 52.76681 104.42442 21545 ft 377 kts 316°
2026-04-27 23:40 52.78543 104.39358 22146 ft 381 kts 315°
2026-04-27 23:41 52.80424 104.36240 22740 ft 385 kts 315°
2026-04-27 23:41 52.82301 104.33136 23321 ft 389 kts 315°
2026-04-27 23:41 52.84233 104.29946 23854 ft 393 kts 315°
2026-04-27 23:41 52.86173 104.26741 24332 ft 395 kts 315°
2026-04-27 23:42 52.88119 104.23516 24867 ft 396 kts 315°
2026-04-27 23:42 52.90068 104.20280 25407 ft 397 kts 315°
2026-04-27 23:42 52.92027 104.17021 25907 ft 399 kts 315°
2026-04-27 23:42 52.93989 104.13753 26395 ft 401 kts 315°
2026-04-27 23:43 52.95959 104.10468 26868 ft 402 kts 315°
2026-04-27 23:43 52.97937 104.07164 27337 ft 404 kts 315°
2026-04-27 23:43 52.99924 104.03842 27807 ft 406 kts 315°
2026-04-27 23:43 53.01921 104.00499 28265 ft 409 kts 315°
2026-04-27 23:44 53.03898 103.97179 28708 ft 411 kts 315°
2026-04-27 23:44 53.05911 103.93792 29158 ft 413 kts 315°
2026-04-27 23:44 53.07934 103.90384 29596 ft 415 kts 315°
2026-04-27 23:44 53.09965 103.86954 30017 ft 417 kts 315°
2026-04-27 23:45 53.12010 103.83496 30384 ft 419 kts 315°
2026-04-27 23:45 53.14122 103.80133 30716 ft 421 kts 321°
2026-04-27 23:45 53.16517 103.77314 31065 ft 423 kts 329°
2026-04-27 23:45 53.19156 103.75120 31399 ft 425 kts 334°
2026-04-27 23:46 53.21850 103.73041 31730 ft 426 kts 334°
2026-04-27 23:46 53.24543 103.70949 32121 ft 426 kts 334°
2026-04-27 23:46 53.27225 103.68853 32602 ft 424 kts 334°
2026-04-27 23:46 53.29892 103.66759 33081 ft 423 kts 334°
2026-04-27 23:47 53.32548 103.64670 33555 ft 421 kts 334°
2026-04-27 23:47 53.35193 103.62584 33998 ft 420 kts 334°
2026-04-27 23:47 53.37828 103.60503 34102 ft 415 kts 334°
2026-04-27 23:47 53.40410 103.58465 34114 ft 405 kts 334°
2026-04-27 23:48 53.45432 103.54491 34114 ft 400 kts 334°
2026-04-27 23:48 53.50149 103.49619 34118 ft 399 kts 316°
2026-04-27 23:49 53.53562 103.42322 34120 ft 398 kts 299°
2026-04-27 23:49 53.56287 103.34199 34119 ft 398 kts 299°
2026-04-27 23:50 53.59019 103.26099 34120 ft 398 kts 299°
2026-04-27 23:50 53.61735 103.18028 34119 ft 398 kts 299°
2026-04-27 23:51 53.64455 103.09900 34120 ft 398 kts 299°
2026-04-27 23:51 53.67164 103.01766 34126 ft 397 kts 298°
2026-04-27 23:52 53.69868 102.93631 34133 ft 397 kts 298°
2026-04-27 23:52 53.72564 102.85500 34129 ft 396 kts 298°
2026-04-27 23:53 53.75251 102.77364 34129 ft 396 kts 298°
2026-04-27 23:53 53.77924 102.69228 34129 ft 396 kts 298°
2026-04-27 23:54 53.80585 102.61079 34137 ft 396 kts 297°
2026-04-27 23:54 53.83250 102.52936 34140 ft 395 kts 297°
2026-04-27 23:55 53.85895 102.44843 34153 ft 395 kts 297°
2026-04-27 23:55 53.88538 102.36687 34156 ft 394 kts 297°
2026-04-27 23:56 53.91168 102.28536 34155 ft 394 kts 297°
2026-04-27 23:56 53.93800 102.20390 34159 ft 393 kts 297°
2026-04-27 23:57 53.96431 102.12230 34161 ft 393 kts 296°
2026-04-27 23:57 53.99035 102.04112 34158 ft 393 kts 296°
2026-04-27 23:58 54.01655 101.95875 34150 ft 393 kts 296°
2026-04-27 23:58 54.04255 101.87732 34147 ft 393 kts 296°
2026-04-27 23:59 54.06865 101.79546 34145 ft 393 kts 296°
2026-04-27 23:59 54.09472 101.71341 34145 ft 393 kts 296°
2026-04-28 00:00 54.12055 101.63181 34160 ft 393 kts 296°
2026-04-28 00:00 54.14644 101.54973 34165 ft 393 kts 296°
2026-04-28 00:01 54.17230 101.46765 34150 ft 392 kts 296°
2026-04-28 00:01 54.19809 101.38542 34150 ft 392 kts 296°
2026-04-28 00:02 54.22374 101.30317 34162 ft 392 kts 295°
2026-04-28 00:02 54.24934 101.22075 34156 ft 392 kts 295°
2026-04-28 00:03 54.27467 101.13893 34163 ft 391 kts 295°
2026-04-28 00:03 54.30012 101.05657 34147 ft 390 kts 295°
2026-04-28 00:04 54.33809 100.93314 34143 ft 390 kts 295°
2026-04-28 00:05 54.36317 100.85135 34134 ft 390 kts 294°
2026-04-28 00:05 54.38834 100.76895 34124 ft 389 kts 294°
2026-04-28 00:06 54.41341 100.68658 34140 ft 389 kts 294°
2026-04-28 00:06 54.43425 100.61797 34137 ft 389 kts 293°
2026-04-28 00:07 54.45920 100.53553 34129 ft 389 kts 293°
2026-04-28 00:07 54.48406 100.45282 34125 ft 388 kts 293°
2026-04-28 00:08 54.50888 100.37014 34121 ft 388 kts 293°
2026-04-28 00:08 54.53354 100.28800 34117 ft 388 kts 293°
2026-04-28 00:09 54.55814 100.20523 34113 ft 388 kts 293°
2026-04-28 00:09 54.58269 100.12239 34126 ft 388 kts 293°
2026-04-28 00:10 54.60722 100.03952 34138 ft 388 kts 293°
2026-04-28 00:10 54.63174 99.95655 34133 ft 387 kts 293°
2026-04-28 00:11 54.65615 99.87350 34142 ft 387 kts 293°
2026-04-28 00:11 54.68048 99.79052 34133 ft 387 kts 293°
2026-04-28 00:12 54.70466 99.70786 34156 ft 387 kts 292°
2026-04-28 00:12 54.72884 99.62465 34152 ft 386 kts 292°
2026-04-28 00:13 54.75291 99.54141 34159 ft 386 kts 292°
2026-04-28 00:13 54.77695 99.45826 34157 ft 386 kts 292°
2026-04-28 00:14 54.80098 99.37499 34147 ft 386 kts 292°
2026-04-28 00:14 54.82471 99.29214 34157 ft 386 kts 292°
2026-04-28 00:15 54.84855 99.20870 34183 ft 385 kts 291°
2026-04-28 00:15 54.87230 99.12521 34189 ft 384 kts 291°
2026-04-28 00:16 54.89467 99.04122 34185 ft 381 kts 286°
2026-04-28 00:16 54.91327 98.95511 34180 ft 380 kts 286°
2026-04-28 00:17 54.93171 98.86947 34179 ft 380 kts 286°
2026-04-28 00:17 54.95017 98.78330 34204 ft 380 kts 286°
2026-04-28 00:18 54.96863 98.69713 34222 ft 380 kts 285°
2026-04-28 00:18 54.98702 98.61097 34215 ft 379 kts 285°
2026-04-28 00:19 55.00522 98.52500 34216 ft 378 kts 285°
2026-04-28 00:19 55.02332 98.43894 34210 ft 378 kts 285°
2026-04-28 00:20 55.04135 98.35306 34207 ft 377 kts 285°
2026-04-28 00:20 55.05938 98.26701 34201 ft 377 kts 285°
2026-04-28 00:21 55.07722 98.18096 34213 ft 377 kts 284°
2026-04-28 00:21 55.09502 98.09477 34201 ft 378 kts 284°
2026-04-28 00:22 55.11274 98.00893 34197 ft 378 kts 284°
2026-04-28 00:22 55.13060 97.92266 34192 ft 378 kts 284°
2026-04-28 00:23 55.14835 97.83605 34199 ft 378 kts 284°
2026-04-28 00:23 55.16595 97.74936 34198 ft 378 kts 284°
2026-04-28 00:24 55.18356 97.66261 34218 ft 379 kts 283°
2026-04-28 00:24 55.20116 97.57553 34206 ft 379 kts 283°
2026-04-28 00:25 55.21867 97.48841 34209 ft 380 kts 283°
2026-04-28 00:25 55.23607 97.40148 34207 ft 380 kts 283°
2026-04-28 00:26 55.25341 97.31401 34207 ft 380 kts 283°
2026-04-28 00:26 55.27088 97.22645 34213 ft 380 kts 283°
2026-04-28 00:27 55.28863 97.13903 34246 ft 380 kts 283°
2026-04-28 00:27 55.30632 97.05151 34243 ft 380 kts 283°
2026-04-28 00:28 55.32375 96.96456 34237 ft 379 kts 283°
2026-04-28 00:28 55.34128 96.87715 34262 ft 379 kts 283°
2026-04-28 00:29 55.35866 96.78959 34256 ft 379 kts 282°
2026-04-28 00:29 55.37598 96.70195 34249 ft 378 kts 282°
2026-04-28 00:30 55.39316 96.61433 34263 ft 379 kts 282°
2026-04-28 00:30 55.41033 96.52654 34249 ft 379 kts 282°
2026-04-28 00:31 55.42730 96.43923 34247 ft 379 kts 282°
2026-04-28 00:31 55.44440 96.35114 34243 ft 380 kts 282°
2026-04-28 00:32 55.46154 96.26297 34241 ft 380 kts 282°
2026-04-28 00:32 55.47854 96.17479 34243 ft 380 kts 281°
2026-04-28 00:33 55.49533 96.08637 34275 ft 380 kts 281°
2026-04-28 00:33 55.51217 95.99793 34264 ft 380 kts 281°
2026-04-28 00:34 55.52892 95.90992 34255 ft 380 kts 281°
2026-04-28 00:34 55.54568 95.82127 34250 ft 380 kts 281°
2026-04-28 00:35 55.56234 95.73256 34244 ft 380 kts 281°
2026-04-28 00:35 55.57897 95.64392 34247 ft 380 kts 281°
2026-04-28 00:36 55.59555 95.55513 34277 ft 380 kts 281°
2026-04-28 00:36 55.61201 95.46645 34042 ft 379 kts 281°
2026-04-28 00:36 55.62022 95.42227 33763 ft 377 kts 281°
2026-04-28 00:37 55.62829 95.37857 33353 ft 371 kts 280°
2026-04-28 00:37 55.63621 95.33540 32878 ft 367 kts 280°
2026-04-28 00:37 55.64403 95.29275 32426 ft 362 kts 280°
2026-04-28 00:37 55.65179 95.25053 31974 ft 358 kts 280°
2026-04-28 00:38 55.65931 95.20956 31527 ft 353 kts 280°
2026-04-28 00:38 55.66680 95.16843 31105 ft 349 kts 280°
2026-04-28 00:38 55.67422 95.12760 30675 ft 345 kts 279°
2026-04-28 00:38 55.68151 95.08739 30276 ft 341 kts 279°
2026-04-28 00:39 55.68873 95.04748 29785 ft 338 kts 278°
2026-04-28 00:39 55.69588 95.00807 29363 ft 334 kts 278°
2026-04-28 00:39 55.70293 94.96903 28986 ft 330 kts 278°
2026-04-28 00:39 55.70987 94.93048 28591 ft 326 kts 278°
2026-04-28 00:40 55.71673 94.89235 28204 ft 323 kts 278°
2026-04-28 00:40 55.72339 94.85517 27854 ft 319 kts 278°
2026-04-28 00:40 55.73006 94.81781 27487 ft 317 kts 278°
2026-04-28 00:40 55.73668 94.78048 27129 ft 316 kts 278°
2026-04-28 00:41 55.74327 94.74329 26771 ft 316 kts 278°
2026-04-28 00:41 55.74987 94.70605 26414 ft 315 kts 278°
2026-04-28 00:41 55.75646 94.66894 26051 ft 315 kts 278°
2026-04-28 00:41 55.76303 94.63187 25688 ft 315 kts 278°
2026-04-28 00:42 55.76960 94.59482 25321 ft 314 kts 278°
2026-04-28 00:42 55.77617 94.55771 24939 ft 314 kts 278°
2026-04-28 00:42 55.78268 94.52080 24563 ft 314 kts 278°
2026-04-28 00:42 55.78910 94.48423 24202 ft 313 kts 277°
2026-04-28 00:43 55.79557 94.44729 23787 ft 313 kts 277°
2026-04-28 00:43 55.80199 94.41048 23343 ft 311 kts 277°
2026-04-28 00:43 55.80835 94.37392 22945 ft 308 kts 277°
2026-04-28 00:43 55.81469 94.33766 22553 ft 306 kts 277°
2026-04-28 00:44 55.82096 94.30168 22146 ft 304 kts 278°
2026-04-28 00:44 55.82736 94.26583 21709 ft 303 kts 278°
2026-04-28 00:44 55.83386 94.23024 21291 ft 302 kts 279°
2026-04-28 00:44 55.84037 94.19481 20873 ft 301 kts 279°
2026-04-28 00:45 55.84678 94.15996 20468 ft 300 kts 279°
2026-04-28 00:45 55.85324 94.12465 20054 ft 299 kts 279°
2026-04-28 00:45 55.85964 94.08953 19639 ft 298 kts 279°
2026-04-28 00:45 55.86603 94.05445 19232 ft 297 kts 280°
2026-04-28 00:46 55.87238 94.01947 18828 ft 296 kts 280°
2026-04-28 00:46 55.87866 93.98468 18412 ft 295 kts 280°
2026-04-28 00:46 55.88490 93.95003 17998 ft 293 kts 280°
2026-04-28 00:46 55.89107 93.91557 17589 ft 291 kts 281°
2026-04-28 00:47 55.89714 93.88165 17195 ft 290 kts 281°
2026-04-28 00:47 55.90325 93.84751 16807 ft 289 kts 281°
2026-04-28 00:47 55.90938 93.81351 16419 ft 288 kts 282°
2026-04-28 00:47 55.91597 93.77977 16035 ft 288 kts 284°
2026-04-28 00:48 55.92289 93.74622 15650 ft 288 kts 285°
2026-04-28 00:48 55.92990 93.71271 15266 ft 288 kts 285°
2026-04-28 00:48 55.93690 93.67919 14878 ft 288 kts 286°
2026-04-28 00:48 55.94386 93.64563 14495 ft 289 kts 286°
2026-04-28 00:49 55.95077 93.61200 14104 ft 289 kts 286°
2026-04-28 00:49 55.95762 93.57829 13680 ft 289 kts 287°
2026-04-28 00:49 55.96445 93.54458 13283 ft 288 kts 287°
2026-04-28 00:49 55.97122 93.51109 12891 ft 286 kts 287°
2026-04-28 00:50 55.97796 93.47768 12500 ft 285 kts 287°
2026-04-28 00:50 55.98457 93.44488 12108 ft 283 kts 288°
2026-04-28 00:50 55.99121 93.41185 11716 ft 282 kts 288°
2026-04-28 00:50 55.99779 93.37892 11330 ft 281 kts 289°
2026-04-28 00:51 56.00433 93.34605 10935 ft 280 kts 289°
2026-04-28 00:51 56.01085 93.31328 10536 ft 279 kts 289°
2026-04-28 00:51 56.01735 93.28071 10236 ft 275 kts 290°
2026-04-28 00:51 56.02309 93.24852 9984 ft 269 kts 284°
2026-04-28 00:52 56.02730 93.21595 9644 ft 269 kts 284°
2026-04-28 00:52 56.03163 93.18339 9186 ft 269 kts 284°
2026-04-28 00:52 56.03598 93.15078 8728 ft 269 kts 284°
2026-04-28 00:52 56.04030 93.11832 8269 ft 269 kts 284°
2026-04-28 00:53 56.04458 93.08582 7854 ft 267 kts 284°
2026-04-28 00:53 56.04880 93.05356 7412 ft 266 kts 284°
2026-04-28 00:53 56.05306 93.02099 6741 ft 273 kts 284°
2026-04-28 00:53 56.05743 92.98774 6172 ft 274 kts 284°
2026-04-28 00:54 56.06204 92.95513 5703 ft 268 kts 289°
2026-04-28 00:54 56.06881 92.92468 5246 ft 265 kts 294°
2026-04-28 00:54 56.07622 92.89461 4784 ft 263 kts 295°
2026-04-28 00:54 56.08348 92.86501 4538 ft 253 kts 294°
2026-04-28 00:55 56.09032 92.83680 4403 ft 240 kts 294°
2026-04-28 00:55 56.09464 92.81897 4315 ft 231 kts 294°
2026-04-28 00:55 56.10079 92.79355 4213 ft 213 kts 294°
2026-04-28 00:55 56.10655 92.76974 3992 ft 203 kts 294°
2026-04-28 00:56 56.11207 92.74688 3731 ft 197 kts 294°
2026-04-28 00:56 56.11741 92.72476 3478 ft 191 kts 294°
2026-04-28 00:56 56.12262 92.70313 3208 ft 185 kts 294°
2026-04-28 00:56 56.12754 92.68268 2964 ft 172 kts 294°
2026-04-28 00:57 56.13208 92.66379 2749 ft 158 kts 295°
2026-04-28 00:57 56.13616 92.64681 2546 ft 140 kts 295°
2026-04-28 00:57 56.13981 92.63158 2354 ft 127 kts 295°
2026-04-28 00:57 56.14255 92.62025 2210 ft 124 kts 295°
2026-04-28 00:58 56.14314 92.61784 2157 ft 124 kts 296°
2026-04-28 00:58 56.14667 92.60324 1828 ft 125 kts 295°
2026-04-28 00:59 56.15013 92.58909 1811 ft 123 kts 295°
2026-04-28 00:59 56.15356 92.57495 1671 ft 124 kts 294°
2026-04-28 00:59 56.15688 92.56067 1447 ft 124 kts 294°
2026-04-28 00:59 56.16031 92.54634 1304 ft 126 kts 292°
2026-04-28 01:00 56.16374 92.53186 1155 ft 126 kts 293°
2026-04-28 01:00 56.16721 92.51739 994 ft 126 kts 294°
2026-04-28 01:00 56.17057 92.50335 952 ft 115 kts 293°
2026-04-28 01:00 56.17308 92.49274 954 ft 68 kts 293°
2026-04-28 01:01 56.17421 92.48823 953 ft 24 kts 306°
2026-04-28 01:01 56.17543 92.48634 955 ft 23 kts 324°
2026-04-28 01:01 56.17658 92.48485 955 ft 14 kts 324°
2026-04-28 01:01 56.17738 92.48401 955 ft 12 kts 352°
2026-04-28 01:02 56.17827 92.48452 955 ft 15 kts 22°
2026-04-28 01:02 56.17896 92.48504 956 ft 8 kts 23°
2026-04-28 01:02 56.17935 92.48534 955 ft 1 kts 24°
2026-04-28 01:02 56.17943 92.48540 955 ft 0 kts 23°